Time,TemperatureF,DewpointF,PressureIn,WindDirection,WindDirectionDegrees,WindSpeedMPH,WindSpeedGustMPH,Humidity,HourlyPrecipIn,Conditions,Clouds,dailyrainin,SoftwareType,DateUTC
2013-02-11 00:00:00,27.7,25.7,28.54,West,270,9.0,17.0,92,0.00,RA,,0.00,WeatherDisplay:10.37,2013-02-11 06:00:00,
2013-02-11 00:15:00,27.5,25.2,28.55,West,270,9.0,13.0,91,0.00,,,0.00,WeatherDisplay:10.37,2013-02-11 06:15:00,
2013-02-11 00:30:00,27.3,25.0,28.56,West,270,9.0,16.0,91,0.00,,,0.00,WeatherDisplay:10.37,2013-02-11 06:30:00,
2013-02-11 00:45:00,27.3,25.3,28.58,West,270,6.0,16.0,92,0.00,,,0.00,WeatherDisplay:10.37,2013-02-11 06:45:00,
2013-02-11 01:00:00,27.3,25.3,28.59,West,270,8.0,15.0,92,0.00,,,0.00,WeatherDisplay:10.37,2013-02-11 07:00:00,
2013-02-11 01:15:00,27.1,25.1,28.60,West,270,9.0,15.0,92,0.00,,,0.00,WeatherDisplay:10.37,2013-02-11 07:15:00,
2013-02-11 01:30:00,27.1,24.9,28.61,West,270,8.0,15.0,91,0.00,,,0.00,WeatherDisplay:10.37,2013-02-11 07:30:00,
2013-02-11 01:45:00,27.0,24.9,28.63,West,270,8.0,13.0,92,0.00,,,0.00,WeatherDisplay:10.37,2013-02-11 07:45:00,
2013-02-11 02:00:00,26.8,24.2,28.64,West,270,9.0,15.0,90,0.00,,,0.00,WeatherDisplay:10.37,2013-02-11 08:00:00,
2013-02-11 02:15:00,26.6,24.3,28.65,West,270,8.0,13.0,91,0.00,,,0.00,WeatherDisplay:10.37,2013-02-11 08:15:00,
2013-02-11 02:30:00,26.4,23.9,28.66,West,270,7.0,13.0,90,0.00,,,0.00,WeatherDisplay:10.37,2013-02-11 08:30:00,
2013-02-11 02:45:00,26.6,24.1,28.67,West,270,8.0,13.0,90,0.00,,,0.00,WeatherDisplay:10.37,2013-02-11 08:45:00,
2013-02-11 03:00:00,26.6,24.3,28.68,West,270,7.0,12.0,91,0.00,,,0.00,WeatherDisplay:10.37,2013-02-11 09:00:00,
2013-02-11 03:15:00,26.6,24.1,28.69,West,270,6.0,13.0,90,0.00,,,0.00,WeatherDisplay:10.37,2013-02-11 09:15:00,
2013-02-11 03:30:00,26.6,24.1,28.69,West,270,8.0,15.0,90,0.00,,,0.00,WeatherDisplay:10.37,2013-02-11 09:30:00,
2013-02-11 03:45:00,26.6,23.5,28.71,West,270,7.0,16.0,88,0.00,,,0.00,WeatherDisplay:10.37,2013-02-11 09:45:00,
2013-02-11 04:00:00,26.6,23.5,28.71,West,270,7.0,15.0,88,0.00,,,0.00,WeatherDisplay:10.37,2013-02-11 10:00:00,
2013-02-11 04:15:00,26.4,24.4,28.72,West,270,8.0,13.0,92,0.00,,,0.00,WeatherDisplay:10.37,2013-02-11 10:15:00,
2013-02-11 04:30:00,25.7,23.2,28.73,West,270,9.0,15.0,90,0.00,,,0.00,WeatherDisplay:10.37,2013-02-11 10:30:00,
2013-02-11 04:45:00,26.0,23.2,28.74,West,270,6.0,20.0,89,0.00,,,0.00,WeatherDisplay:10.37,2013-02-11 10:45:00,
2013-02-11 05:00:00,25.9,24.4,28.75,West,270,8.0,13.0,94,0.00,,,0.00,WeatherDisplay:10.37,2013-02-11 11:00:00,
2013-02-11 05:15:00,25.7,24.5,28.75,West,270,6.0,11.0,95,0.00,,,0.00,WeatherDisplay:10.37,2013-02-11 11:15:00,
2013-02-11 05:30:00,25.5,24.5,28.76,West,270,5.0,12.0,96,0.00,,,0.00,WeatherDisplay:10.37,2013-02-11 11:30:00,
2013-02-11 05:45:00,25.3,24.4,28.76,West,270,6.0,10.0,96,0.00,,,0.00,WeatherDisplay:10.37,2013-02-11 11:45:00,
2013-02-11 06:00:00,25.3,24.1,28.76,West,270,7.0,11.0,95,0.00,,,0.00,WeatherDisplay:10.37,2013-02-11 12:00:00,
2013-02-11 06:15:00,25.5,24.0,28.77,West,270,6.0,10.0,94,0.00,,,0.00,WeatherDisplay:10.37,2013-02-11 12:15:00,
2013-02-11 06:30:00,25.7,24.2,28.78,West,270,5.0,9.0,94,0.00,,,0.00,WeatherDisplay:10.37,2013-02-11 12:30:00,
2013-02-11 06:45:00,25.9,23.9,28.79,West,270,5.0,9.0,92,0.00,,,0.00,WeatherDisplay:10.37,2013-02-11 12:45:00,
2013-02-11 07:00:00,25.2,23.0,28.80,West,270,6.0,13.0,91,0.00,,,0.00,WeatherDisplay:10.37,2013-02-11 13:00:00,
2013-02-11 07:15:00,24.8,22.5,28.81,West,270,3.0,11.0,91,0.00,,,0.00,WeatherDisplay:10.37,2013-02-11 13:15:00,
2013-02-11 07:30:00,25.3,23.6,28.82,West,270,5.0,8.0,93,0.00,,,0.00,WeatherDisplay:10.37,2013-02-11 13:30:00,
2013-02-11 07:45:00,25.2,22.4,28.83,West,270,8.0,13.0,89,0.00,,,0.00,WeatherDisplay:10.37,2013-02-11 13:45:00,
2013-02-11 08:00:00,25.0,21.9,28.84,West,270,7.0,14.0,88,0.00,,,0.00,WeatherDisplay:10.37,2013-02-11 14:00:00,
2013-02-11 08:15:00,24.8,21.2,28.84,West,270,7.0,14.0,86,0.00,,,0.00,WeatherDisplay:10.37,2013-02-11 14:15:00,
2013-02-11 08:30:00,25.0,21.7,28.84,West,270,6.0,12.0,87,0.00,,,0.00,WeatherDisplay:10.37,2013-02-11 14:30:00,
2013-02-11 08:45:00,25.3,22.0,28.85,West,270,6.0,12.0,87,0.00,,,0.00,WeatherDisplay:10.37,2013-02-11 14:45:00,
2013-02-11 09:00:00,25.3,22.0,28.86,West,270,6.0,11.0,87,0.00,,,0.00,WeatherDisplay:10.37,2013-02-11 15:00:00,
2013-02-11 09:15:00,25.7,22.4,28.86,West,270,6.0,9.0,87,0.00,,,0.00,WeatherDisplay:10.37,2013-02-11 15:15:00,
2013-02-11 09:30:00,26.1,22.4,28.87,West,270,8.0,13.0,86,0.00,,,0.00,WeatherDisplay:10.37,2013-02-11 15:30:00,
2013-02-11 09:45:00,26.4,23.1,28.87,West,270,6.0,13.0,87,0.00,,,0.00,WeatherDisplay:10.37,2013-02-11 15:45:00,
2013-02-11 10:00:00,26.2,22.8,28.88,West,270,6.0,13.0,87,0.00,,,0.00,WeatherDisplay:10.37,2013-02-11 16:00:00,
2013-02-11 10:15:00,26.2,22.9,28.88,West,270,7.0,12.0,87,0.00,,,0.00,WeatherDisplay:10.37,2013-02-11 16:15:00,
2013-02-11 10:30:00,27.0,23.1,28.89,West,270,7.0,13.0,85,0.00,,,0.00,WeatherDisplay:10.37,2013-02-11 16:30:00,
2013-02-11 10:45:00,26.8,22.9,28.90,West,270,6.0,12.0,85,0.00,,,0.00,WeatherDisplay:10.37,2013-02-11 16:45:00,
2013-02-11 11:00:00,27.1,22.9,28.90,West,270,6.0,11.0,84,0.00,,,0.00,WeatherDisplay:10.37,2013-02-11 17:00:00,
2013-02-11 11:15:00,26.8,23.2,28.91,West,270,6.0,11.0,86,0.00,,,0.00,WeatherDisplay:10.37,2013-02-11 17:15:00,
2013-02-11 11:30:00,26.8,22.9,28.91,West,270,7.0,11.0,85,0.00,,,0.00,WeatherDisplay:10.37,2013-02-11 17:30:00,
2013-02-11 11:45:00,27.1,23.2,28.91,West,270,6.0,10.0,85,0.00,,,0.00,WeatherDisplay:10.37,2013-02-11 17:45:00,
2013-02-11 12:00:00,27.3,23.1,28.91,West,270,6.0,12.0,84,0.00,,,0.00,WeatherDisplay:10.37,2013-02-11 18:00:00,
2013-02-11 12:15:00,27.5,23.6,28.91,West,270,6.0,9.0,85,0.00,,,0.00,WeatherDisplay:10.37,2013-02-11 18:15:00,
2013-02-11 12:30:00,27.5,23.3,28.91,West,270,6.0,12.0,84,0.00,,,0.00,WeatherDisplay:10.37,2013-02-11 18:30:00,
2013-02-11 12:45:00,27.9,23.9,28.90,West,270,7.0,13.0,85,0.00,,,0.00,WeatherDisplay:10.37,2013-02-11 18:45:00,
2013-02-11 13:00:00,28.4,24.4,28.90,West,270,6.0,11.0,85,0.00,,,0.00,WeatherDisplay:10.37,2013-02-11 19:00:00,
2013-02-11 13:15:00,28.2,24.0,28.91,West,270,7.0,10.0,84,0.00,,,0.00,WeatherDisplay:10.37,2013-02-11 19:15:00,
2013-02-11 13:30:00,28.0,23.8,28.91,NW,319,7.0,10.0,84,0.00,,,0.00,WeatherDisplay:10.37,2013-02-11 19:30:00,
2013-02-11 13:45:00,27.9,23.9,28.91,NW,304,6.0,11.0,85,0.00,,,0.00,WeatherDisplay:10.37,2013-02-11 19:45:00,
2013-02-11 14:00:00,28.3,23.8,28.91,NW,316,6.0,10.0,83,0.00,,,0.00,WeatherDisplay:10.37,2013-02-11 20:00:00,
2013-02-11 14:15:00,28.0,23.5,28.91,NNW,330,6.0,10.0,83,0.00,,,0.00,WeatherDisplay:10.37,2013-02-11 20:15:00,
2013-02-11 14:30:00,28.6,24.1,28.90,NW,318,6.0,10.0,83,0.00,,,0.00,WeatherDisplay:10.37,2013-02-11 20:30:00,
2013-02-11 14:45:00,28.6,23.8,28.91,NW,311,5.0,12.0,82,0.00,,,0.00,WeatherDisplay:10.37,2013-02-11 20:45:00,
2013-02-11 15:00:00,28.2,23.1,28.91,NW,322,6.0,13.0,81,0.00,,,0.00,WeatherDisplay:10.37,2013-02-11 21:00:00,
2013-02-11 15:15:00,28.4,23.6,28.91,NW,318,5.0,10.0,82,0.00,,,0.00,WeatherDisplay:10.37,2013-02-11 21:15:00,
2013-02-11 15:30:00,28.4,23.9,28.92,NW,315,5.0,9.0,83,0.00,,,0.00,WeatherDisplay:10.37,2013-02-11 21:30:00,
2013-02-11 15:45:00,28.0,23.3,28.92,NW,309,5.0,9.0,82,0.00,,,0.00,WeatherDisplay:10.37,2013-02-11 21:45:00,
2013-02-11 16:00:00,27.9,23.7,28.92,NW,315,5.0,8.0,84,0.00,,,0.00,WeatherDisplay:10.37,2013-02-11 22:00:00,
2013-02-11 16:15:00,27.9,23.7,28.93,NW,311,5.0,8.0,84,0.00,,,0.00,WeatherDisplay:10.37,2013-02-11 22:15:00,
2013-02-11 16:30:00,27.7,23.8,28.92,NW,319,3.0,7.0,85,0.00,,,0.00,WeatherDisplay:10.37,2013-02-11 22:30:00,
2013-02-11 16:45:00,27.6,23.4,28.93,NW,308,3.0,8.0,84,0.00,,,0.00,WeatherDisplay:10.37,2013-02-11 22:45:00,
2013-02-11 17:00:00,27.3,23.1,28.92,NW,304,3.0,8.0,84,0.00,,,0.00,WeatherDisplay:10.37,2013-02-11 23:00:00,
2013-02-11 17:15:00,27.2,23.0,28.93,NW,315,5.0,8.0,84,0.00,,,0.00,WeatherDisplay:10.37,2013-02-11 23:15:00,
2013-02-11 17:30:00,27.1,23.2,28.93,NW,314,2.0,7.0,85,0.00,,,0.00,WeatherDisplay:10.37,2013-02-11 23:30:00,
2013-02-11 17:45:00,27.0,23.3,28.92,NW,307,3.0,7.0,86,0.00,,,0.00,WeatherDisplay:10.37,2013-02-11 23:45:00,
2013-02-11 18:00:00,27.0,23.1,28.92,NW,324,3.0,7.0,85,0.00,,,0.00,WeatherDisplay:10.37,2013-02-12 00:00:00,
2013-02-11 18:15:00,26.8,22.9,28.92,NW,322,5.0,7.0,85,0.00,,,0.00,WeatherDisplay:10.37,2013-02-12 00:15:00,
2013-02-11 18:30:00,26.8,23.2,28.93,NW,326,2.0,7.0,86,0.00,,,0.00,WeatherDisplay:10.37,2013-02-12 00:30:00,
2013-02-11 18:45:00,26.6,22.1,28.93,NW,318,3.0,9.0,83,0.00,,,0.00,WeatherDisplay:10.37,2013-02-12 00:45:00,
2013-02-11 19:00:00,26.6,22.7,28.93,NNW,327,2.0,8.0,85,0.00,,,0.00,WeatherDisplay:10.37,2013-02-12 01:00:00,
2013-02-11 19:15:00,26.6,22.7,28.93,NW,315,2.0,6.0,85,0.00,,,0.00,WeatherDisplay:10.37,2013-02-12 01:15:00,
2013-02-11 19:30:00,26.6,22.7,28.93,NW,309,2.0,6.0,85,0.00,,,0.00,WeatherDisplay:10.37,2013-02-12 01:30:00,
2013-02-11 19:41:00,26.6,22.7,28.93,NW,315,4.6,4.6,85,0.00,CLR,,0.00,WeatherDisplay:10.37,2013-02-12 01:41:00,
2013-02-11 19:46:00,26.6,22.4,28.93,NW,315,5.8,5.8,84,0.00,CLR,,0.00,WeatherDisplay:10.37,2013-02-12 01:46:00,
2013-02-11 19:51:00,26.6,22.4,28.93,North,0,5.8,5.8,84,0.00,CLR,,0.00,WeatherDisplay:10.37,2013-02-12 01:51:00,
2013-02-11 19:57:00,26.6,22.4,28.93,NW,315,4.6,4.6,84,0.00,CLR,,0.00,WeatherDisplay:10.37,2013-02-12 01:57:00,
2013-02-11 20:02:00,26.6,22.4,28.93,NW,315,3.5,3.5,84,0.00,CLR,,0.00,WeatherDisplay:10.37,2013-02-12 02:02:00,
2013-02-11 20:07:00,26.6,22.4,28.93,NW,315,3.5,3.5,84,0.00,CLR,,0.00,WeatherDisplay:10.37,2013-02-12 02:07:00,
2013-02-11 20:12:00,26.6,22.7,28.93,NW,315,3.5,3.5,85,0.00,CLR,,0.00,WeatherDisplay:10.37,2013-02-12 02:12:00,
2013-02-11 20:17:00,26.6,22.7,28.93,West,270,3.8,3.8,85,0.00,CLR,,0.00,WeatherDisplay:10.37,2013-02-12 02:17:00,
2013-02-11 20:23:00,26.6,22.7,28.92,NW,315,3.5,3.5,85,0.00,CLR,,0.00,WeatherDisplay:10.37,2013-02-12 02:23:00,
2013-02-11 20:28:00,26.6,22.4,28.92,NW,315,3.5,3.5,84,0.00,CLR,,0.00,WeatherDisplay:10.37,2013-02-12 02:28:00,
2013-02-11 20:33:00,26.6,22.1,28.93,West,270,4.6,4.6,83,0.00,CLR,,0.00,WeatherDisplay:10.37,2013-02-12 02:33:00,
2013-02-11 20:38:00,26.6,22.1,28.92,West,270,5.8,5.8,83,0.00,CLR,,0.00,WeatherDisplay:10.37,2013-02-12 02:38:00,
2013-02-11 20:44:00,26.6,22.4,28.92,NW,315,4.6,4.6,84,0.00,CLR,,0.00,WeatherDisplay:10.37,2013-02-12 02:44:00,
2013-02-11 20:49:00,26.6,22.4,28.92,West,270,3.5,3.5,84,0.00,CLR,,0.00,WeatherDisplay:10.37,2013-02-12 02:49:00,
2013-02-11 20:54:00,26.4,22.2,28.92,NW,315,2.3,2.3,84,0.00,CLR,,0.00,WeatherDisplay:10.37,2013-02-12 02:54:00,
2013-02-11 20:59:00,26.4,22.2,28.92,NW,315,2.3,2.3,84,0.00,CLR,,0.00,WeatherDisplay:10.37,2013-02-12 02:59:00,
2013-02-11 21:04:00,26.4,22.2,28.92,NW,315,2.3,2.3,84,0.00,CLR,,0.00,WeatherDisplay:10.37,2013-02-12 03:04:00,
2013-02-11 21:09:00,26.4,22.5,28.92,SW,225,5.8,5.8,85,0.00,CLR,,0.00,WeatherDisplay:10.37,2013-02-12 03:09:00,
2013-02-11 21:15:00,26.6,22.4,28.92,West,268,1.0,6.0,84,0.00,CLR,,0.00,WeatherDisplay:10.37,2013-02-12 03:15:00,
2013-02-11 21:20:00,26.6,22.4,28.92,West,270,4.6,4.6,84,0.00,CLR,,0.00,WeatherDisplay:10.37,2013-02-12 03:20:00,
2013-02-11 21:25:00,26.6,22.1,28.93,West,270,5.8,5.8,83,0.00,CLR,,0.00,WeatherDisplay:10.37,2013-02-12 03:25:00,
2013-02-11 21:30:00,26.6,22.1,28.93,WNW,303,2.0,7.0,83,0.00,CLR,,0.00,WeatherDisplay:10.37,2013-02-12 03:30:00,
2013-02-11 21:35:00,26.4,21.7,28.93,NW,315,3.5,3.5,82,0.00,CLR,,0.00,WeatherDisplay:10.37,2013-02-12 03:35:00,
2013-02-11 21:40:00,26.4,21.7,28.93,West,270,3.5,3.5,82,0.00,CLR,,0.00,WeatherDisplay:10.37,2013-02-12 03:40:00,
2013-02-11 21:45:00,26.4,21.7,28.93,NW,315,3.5,3.5,82,0.00,CLR,,0.00,WeatherDisplay:10.37,2013-02-12 03:45:00,
2013-02-11 21:50:00,26.4,21.7,28.93,NW,315,4.6,4.6,82,0.00,CLR,,0.00,WeatherDisplay:10.37,2013-02-12 03:50:00,
2013-02-11 21:56:00,26.2,21.8,28.93,West,270,3.5,3.5,83,0.00,CLR,,0.00,WeatherDisplay:10.37,2013-02-12 03:56:00,
2013-02-11 22:01:00,26.1,21.3,28.93,NW,315,3.5,3.5,82,0.00,CLR,,0.00,WeatherDisplay:10.37,2013-02-12 04:01:00,
2013-02-11 22:06:00,25.7,21.0,28.93,NW,315,1.2,1.2,82,0.00,CLR,,0.00,WeatherDisplay:10.37,2013-02-12 04:06:00,
2013-02-11 22:11:00,25.3,20.6,28.93,NW,315,2.3,2.3,82,0.00,CLR,,0.00,WeatherDisplay:10.37,2013-02-12 04:11:00,
2013-02-11 22:16:00,25.0,20.5,28.93,SW,225,1.2,0.0,83,0.00,CLR,,0.00,WeatherDisplay:10.37,2013-02-12 04:16:00,
2013-02-11 22:22:00,25.0,20.5,28.93,SW,225,1.2,0.0,83,0.00,CLR,,0.00,WeatherDisplay:10.37,2013-02-12 04:22:00,
2013-02-11 22:27:00,24.1,19.9,28.93,NW,315,1.2,1.2,84,0.00,CLR,,0.00,WeatherDisplay:10.37,2013-02-12 04:27:00,
2013-02-11 22:32:00,23.7,19.6,28.93,West,270,1.6,1.6,84,0.00,CLR,,0.00,WeatherDisplay:10.37,2013-02-12 04:32:00,
2013-02-11 22:37:00,23.4,19.2,28.93,West,270,3.5,3.5,84,0.00,CLR,,0.00,WeatherDisplay:10.37,2013-02-12 04:37:00,
2013-02-11 22:42:00,23.0,18.9,28.93,North,0,1.2,1.2,84,0.00,CLR,,0.00,WeatherDisplay:10.37,2013-02-12 04:42:00,
2013-02-11 22:48:00,22.5,18.4,28.93,West,270,2.3,0.0,84,0.00,CLR,,0.00,WeatherDisplay:10.37,2013-02-12 04:48:00,
2013-02-11 22:53:00,22.1,18.3,28.93,West,270,1.2,1.2,85,0.00,CLR,,0.00,WeatherDisplay:10.37,2013-02-12 04:53:00,
2013-02-11 22:58:00,21.7,17.9,28.93,SW,225,2.3,2.3,85,0.00,CLR,,0.00,WeatherDisplay:10.37,2013-02-12 04:58:00,
2013-02-11 23:00:00,21.7,17.9,28.93,WSW,246,1.0,3.0,85,0.00,CLR,,0.00,WeatherDisplay:10.37,2013-02-12 05:00:00,
2013-02-11 23:01:00,21.7,18.2,28.93,West,270,2.3,2.3,86,0.00,CLR,,0.00,WeatherDisplay:10.37,2013-02-12 05:01:00,
2013-02-11 23:06:00,21.7,18.2,28.93,West,270,2.3,2.3,86,0.00,CLR,,0.00,WeatherDisplay:10.37,2013-02-12 05:06:00,
2013-02-11 23:11:00,22.6,19.6,28.93,SW,225,3.8,3.8,88,0.00,CLR,,0.00,WeatherDisplay:10.37,2013-02-12 05:11:00,
2013-02-11 23:16:00,22.8,19.8,28.93,SW,225,2.3,2.3,88,0.00,CLR,,0.00,WeatherDisplay:10.37,2013-02-12 05:16:00,
2013-02-11 23:21:00,22.6,19.4,28.93,SW,225,3.5,3.5,87,0.00,CLR,,0.00,WeatherDisplay:10.37,2013-02-12 05:21:00,
2013-02-11 23:26:00,22.8,19.5,28.93,SW,225,2.3,2.3,87,0.00,CLR,,0.00,WeatherDisplay:10.37,2013-02-12 05:26:00,
2013-02-11 23:32:00,22.8,19.5,28.93,West,270,2.3,2.3,87,0.00,CLR,,0.00,WeatherDisplay:10.37,2013-02-12 05:32:00,
2013-02-11 23:37:00,22.6,19.4,28.93,WSW,248,2.3,2.3,87,0.00,CLR,,0.00,WeatherDisplay:10.37,2013-02-12 05:37:00,
2013-02-11 23:42:00,22.8,19.5,28.93,SW,225,3.5,3.5,87,0.00,CLR,,0.00,WeatherDisplay:10.37,2013-02-12 05:42:00,
2013-02-11 23:47:00,22.6,19.4,28.93,SW,225,3.5,3.5,87,0.00,CLR,,0.00,WeatherDisplay:10.37,2013-02-12 05:47:00,
2013-02-11 23:52:00,21.9,18.4,28.92,SSW,202,3.5,3.5,86,0.00,CLR,,0.00,WeatherDisplay:10.37,2013-02-12 05:52:00,
2013-02-11 23:58:00,21.0,17.5,28.92,South,180,2.3,2.3,86,0.00,CLR,,0.00,WeatherDisplay:10.37,2013-02-12 05:58:00,